Dewpoint
10 10 9 9 9 8 8 8 5 4 3 3 4 4 3 3 3 1 -1 -3 -4 -3 0 -1 -17 -27 -26 -29 -30 -30 -27 -9 -4 -3 -3 -3 -2 -2
9 9 9 9 8 8 7 6 4 4 4 3 4 4 3 2 0 -2 -3 -0 1 -1 -18 -26 -26 -23 -20 -28 -29 -19 -7 -5 -4 -4 -3 -3 -2 -2
8 8 8 7 7 6 5 4 4 3 3 2 2 1 -0 -1 -1 -1 -0 -5 -18 -24 -25 -24 -25 -24 -24 -18 -12 -9 -6 -5 -4 -4 -4 -3 -3 -3
7 6 6 5 5 4 3 2 2 1 0 0 0 0 0 -0 -5 -15 -22 -23 -21 -21 -19 -21 -18 -13 -11 -10 -8 -8 -7 -6 -5 -5 -5 -4 -4 -4
5 4 3 3 2 1 0 0 -0 1 0 0 -1 -4 -13 -21 -21 -18 -17 -16 -15 -18 -20 -21 -19 -14 -14 -10 -10 -9 -7 -6 -5 -5 -5 -6 -5 -5
4 3 2 -0 -2 -2 -0 -0 -0 -1 -2 -7 -17 -23 -20 -13 -12 -13 -10 -10 -16 -20 -21 -17 -13 -13 -13 -12 -13 -13 -13 -11 -7 -6 -6 -6 -5 -5
-0 -1 -2 -1 -1 -1 -1 -1 -4 -17 -22 -25 -22 -13 -10 -11 -8 -8 -9 -13 -23 -20 -13 -13 -12 -12 -13 -13 -13 -12 -11 -7 -6 -6 -6 -6 -5 -5
-1 -1 -1 -1 -1 -2 -13 -17 -21 -23 -24 -22 -20 -14 -13 -9 -9 -11 -15 -18 -14 -12 -11 -13 -12 -12 -12 -12 -11 -11 -10 -8 -6 -6 -6 -6 -6 -6
-0 -1 -1 -2 -6 -13 -22 -24 -21 -19 -18 -18 -17 -15 -16 -16 -18 -20 -19 -14 -12 -12 -10 -12 -12 -11 -11 -11 -11 -12 -11 -10 -10 -9 -7 -6 -6 -6
-10 -19 -21 -23 -24 -25 -23 -21 -19 -18 -16 -17 -18 -20 -20 -21 -19 -16 -12 -12 -12 -11 -10 -10 -11 -10 -11 -11 -11 -12 -11 -11 -10 -8 -7 -7 -6 -6
-23 -24 -24 -24 -25 -27 -28 -26 -23 -20 -19 -19 -21 -19 -18 -14 -11 -11 -11 -10 -11 -11 -10 -10 -10 -9 -11 -11 -11 -11 -11 -11 -10 -10 -10 -9 -7 -7
-25 -24 -25 -26 -28 -27 -26 -25 -25 -23 -23 -22 -20 -15 -12 -12 -11 -10 -10 -9 -9 -9 -9 -9 -9 -9 -9 -11 -11 -11 -11 -11 -10 -10 -10 -10 -8 -8
-26 -26 -27 -26 -25 -25 -25 -24 -24 -23 -23 -21 -14 -12 -11 -11 -10 -10 -9 -9 -9 -9 -9 -9 -9 -9 -9 -9 -11 -11 -11 -11 -10 -10 -10 -9 -9 -8
-27 -25 -23 -23 -24 -23 -24 -23 -23 -22 -17 -12 -11 -11 -10 -10 -10 -10 -10 -10 -9 -9 -9 -9 -9 -9 -9 -9 -9 -10 -10 -11 -10 -10 -10 -9 -9 -9
-25 -24 -24 -23 -23 -23 -23 -22 -20 -15 -12 -11 -10 -10 -10 -9 -10 -10 -10 -9 -9 -9 -10 -10 -9 -9 -10 -10 -10 -9 -9 -10 -10 -10 -10 -9 -9 -8
-25 -24 -23 -22 -22 -22 -21 -18 -13 -11 -11 -10 -10 -10 -9 -9 -9 -9 -9 -9 -9 -10 -10 -9 -9 -10 -9 -9 -9 -9 -10 -9 -10 -10 -9 -9 -9 -9
-23 -22 -22 -21 -22 -20 -18 -13 -11 -11 -10 -10 -9 -9 -9 -9 -9 -9 -9 -9 -9 -9 -10 -9 -9 -9 -9 -9 -9 -9 -9 -9 -9 -9 -8 -8 -9 -9
-23 -22 -21 -22 -21 -18 -13 -11 -11 -10 -10 -9 -9 -9 -9 -9 -9 -9 -9 -9 -9 -9 -10 -9 -10 -9 -9 -10 -10 -9 -8 -8 -9 -8 -8 -8 -9 -9
-22 -21 -21 -22 -21 -17 -12 -11 -10 -10 -9 -9 -9 -9 -8 -8 -8 -9 -9 -9 -9 -10 -10 -10 -10 -9 -9 -9 -10 -9 -8 -9 -8 -8 -8 -8 -8 -9
-22 -21 -21 -21 -21 -18 -12 -11 -10 -10 -10 -9 -9 -9 -8 -8 -9 -9 -9 -10 -10 -10 -9 -10 -10 -10 -9 -9 -8 -10 -9 -8 -7 -8 -8 -8 -8 -8
-21 -21 -20 -21 -21 -21 -15 -12 -11 -11 -10 -10 -10 -9 -9 -8 -9 -9 -9 -10 -10 -9 -9 -10 -10 -10 -9 -9 -8 -8 -9 -8 -8 -8 -8 -7 -7 -8
-21 -21 -20 -20 -20 -21 -20 -15 -12 -11 -11 -11 -10 -9 -9 -9 -9 -9 -9 -9 -9 -9 -9 -10 -10 -9 -9 -9 -8 -8 -8 -9 -10 -10 -9 -8 -7 -7
-22 -21 -21 -21 -20 -20 -21 -19 -15 -13 -12 -11 -9 -9 -9 -9 -9 -9 -9 -9 -9 -9 -10 -10 -9 -9 -9 -8 -8 -8 -8 -8 -9 -10 -11 -9 -7 -7
Wind_Speed
36 39 42 42 41 40 39 39 35 23 23 24 23 25 24 23 27 27 26 25 26 28 31 29 28 28 28 28 28 27 26 22 21 21 20 20 21 22
36 36 37 38 42 40 37 32 28 23 17 18 17 21 22 22 20 21 21 25 27 27 24 25 26 26 26 27 26 24 22 21 22 20 20 21 21 22
28 30 31 32 32 29 25 19 15 16 13 21 16 16 13 15 18 21 22 22 23 24 24 24 24 25 24 23 22 22 21 20 21 20 21 21 22 22
23 25 25 24 21 16 12 9 8 5 9 9 11 13 13 15 15 18 20 20 20 20 20 20 21 19 20 21 21 21 20 20 21 22 22 22 23 23
16 14 12 11 8 6 6 5 8 5 8 8 9 10 11 13 15 16 16 17 16 19 23 22 20 20 19 18 19 20 21 22 22 23 23 23 23 23
9 8 7 7 4 3 4 4 6 6 6 8 8 9 12 10 13 16 16 18 23 23 22 20 16 16 15 18 19 20 22 22 20 20 21 23 24 25
6 6 5 3 5 4 4 4 5 7 6 7 8 9 9 12 11 15 20 24 23 23 16 14 18 16 16 17 19 20 20 19 20 22 24 25 25 26
4 4 3 5 4 1 2 6 9 9 9 9 9 11 11 12 16 20 22 22 23 15 23 17 18 18 19 20 22 21 22 22 22 23 25 25 25 26
4 4 4 1 2 3 6 7 7 8 10 11 12 12 14 15 17 18 17 17 19 20 23 25 22 24 21 24 24 24 22 21 19 20 21 21 22 23
5 4 2 2 4 6 7 8 10 11 10 12 13 14 15 14 14 15 16 19 20 20 18 27 22 26 27 28 25 17 17 18 19 20 23 23 23 24
4 4 5 7 8 9 10 11 11 11 12 12 13 11 9 9 10 13 14 18 21 21 18 22 29 33 33 28 22 27 23 23 22 21 21 21 23 25
3 4 6 8 9 10 11 11 11 12 12 11 9 7 7 7 9 12 14 17 17 23 15 27 31 32 33 33 37 31 28 24 24 23 23 21 22 24
7 8 8 9 11 11 12 12 11 11 10 8 6 6 7 9 11 13 15 16 19 23 24 23 31 31 27 35 39 36 33 31 28 25 20 14 18 19
8 9 11 12 12 12 11 9 8 7 6 5 6 8 9 10 11 13 12 14 17 22 22 22 28 27 29 34 39 37 35 34 29 21 23 24 22 21
10 11 11 12 12 11 10 7 6 4 5 7 8 10 11 12 13 12 12 15 21 23 22 20 21 23 25 31 37 39 37 36 25 31 29 27 27 24
14 14 14 13 11 9 6 4 4 5 7 8 10 11 13 13 13 13 15 18 24 26 24 20 21 21 25 29 31 36 33 33 32 31 33 33 30 26
14 14 12 11 9 6 4 4 4 6 8 10 11 14 15 16 14 14 16 20 24 28 29 25 24 24 25 26 32 32 32 35 36 37 35 36 33 30
14 13 11 11 8 6 5 6 7 7 9 10 12 14 16 18 18 17 18 20 24 27 29 30 29 30 29 30 26 31 33 37 36 34 33 38 38 32
14 12 11 10 8 7 8 7 7 8 10 12 14 15 18 19 20 21 21 21 24 27 29 31 29 28 32 36 34 27 34 36 33 35 36 36 39 36
14 13 11 11 10 10 11 10 9 10 11 14 15 16 18 20 21 21 22 23 25 28 32 31 29 28 30 34 40 38 31 33 37 39 39 37 38 34
14 14 13 12 11 12 12 13 13 13 14 16 17 18 19 21 22 22 23 22 24 27 31 32 30 28 31 32 34 40 39 35 32 36 36 38 38 37
15 14 13 13 13 13 14 15 15 16 17 18 19 20 21 22 23 24 24 25 28 28 32 32 33 34 34 33 38 42 42 43 39 33 29 28 30 32
16 15 14 13 14 15 15 16 17 17 18 19 21 22 23 23 24 26 25 27 28 31 32 35 35 36 38 39 38 41 44 44 46 45 38 30 30 31
Wind_Direction
258 258 254 255 255 256 256 256 249 248 250 250 261 267 263 274 271 271 269 271 274 278 284 287 293 294 294 293 294 294 292 292 291 289 289 289 287 283
258 260 262 260 258 257 259 258 257 252 267 265 254 262 265 266 269 266 270 275 279 282 286 292 293 292 291 293 293 292 291 290 289 288 287 285 285 282
262 261 259 257 257 260 266 267 259 255 244 255 268 270 271 274 272 269 276 276 279 288 293 294 296 294 296 296 295 291 291 289 287 285 284 283 284 283
260 258 256 254 256 261 264 264 258 257 258 266 275 268 272 272 271 273 281 289 288 294 299 302 302 301 299 296 293 293 292 290 287 286 283 282 282 280
259 257 251 246 238 244 250 252 255 254 260 269 266 278 280 286 286 290 295 300 303 305 306 301 303 299 298 296 297 296 293 291 288 286 284 282 281 280
244 231 219 211 211 218 261 268 272 274 269 271 282 290 292 297 304 310 307 301 304 304 303 308 300 303 299 299 297 294 294 294 292 289 289 288 284 281
179 169 175 208 213 211 228 272 290 276 283 295 300 295 300 303 304 297 297 304 309 309 320 313 315 313 305 303 301 304 304 300 295 291 287 284 282 281
142 132 172 188 213 40 334 293 285 298 304 302 297 293 299 294 291 296 301 307 317 329 329 318 327 317 320 317 315 314 305 299 296 292 287 284 280 277
131 145 192 217 30 280 281 291 296 301 304 299 297 296 296 297 297 301 304 310 313 320 322 320 331 323 324 315 318 319 312 299 297 296 292 288 283 278
100 76 62 318 311 317 308 304 306 306 304 305 305 302 295 296 299 305 308 309 310 314 317 313 332 323 324 324 325 323 325 317 314 303 295 289 286 283
36 1 341 334 331 315 308 303 303 301 299 297 307 316 310 309 308 307 313 308 311 317 334 323 328 321 322 326 334 335 333 325 316 308 303 296 289 287
332 333 325 313 306 304 309 308 305 304 305 301 300 311 308 308 304 300 303 302 310 321 326 320 320 327 326 327 326 328 330 327 325 318 310 303 293 285
326 319 315 317 316 317 313 309 305 303 307 308 311 310 304 298 296 295 294 294 303 303 320 311 308 314 309 310 317 323 326 329 326 319 311 306 302 295
327 329 326 321 316 311 307 303 300 301 305 307 313 310 306 306 306 306 301 300 299 306 318 313 304 308 305 306 307 318 324 326 328 327 322 316 313 305
335 330 322 317 315 313 311 311 310 305 308 320 320 317 317 318 314 307 303 310 315 320 322 317 310 307 302 300 303 312 321 324 323 326 325 319 315 310
332 329 324 321 321 315 309 305 303 308 310 314 312 315 320 320 317 312 314 320 320 327 334 330 322 316 307 304 306 311 320 309 321 325 326 320 318 311
324 323 322 324 325 313 306 295 292 297 303 309 317 323 324 324 321 315 314 319 326 332 334 334 330 322 316 314 310 312 316 317 321 323 321 317 315 316
322 322 324 321 316 307 294 288 290 297 310 317 321 323 324 327 326 321 317 317 324 330 331 333 331 328 325 322 320 317 312 314 319 319 316 315 315 316
322 319 316 311 303 293 291 291 296 306 313 316 318 325 327 325 323 324 322 318 321 326 328 335 337 330 322 312 326 322 312 316 314 314 320 316 312 312
321 317 309 304 296 289 291 291 294 301 309 312 315 321 325 323 321 325 324 320 320 325 326 329 333 332 320 314 314 318 324 314 314 314 316 315 310 312
314 311 306 298 292 283 284 288 293 299 306 312 315 316 322 322 321 321 320 320 320 320 321 325 333 331 323 322 306 309 320 324 319 310 310 308 306 311
317 309 302 296 291 287 283 284 288 296 302 308 312 317 320 317 318 317 318 319 320 321 321 321 329 333 327 318 311 311 313 322 329 325 314 308 304 291
316 309 304 298 292 288 285 284 286 291 299 306 311 314 315 314 317 316 315 316 322 324 327 327 327 328 322 320 314 309 312 317 322 326 324 322 318 313
Height
1497 1499 1499 1499 1499 1500 1501 1501 1500 1502 1503 1501 1501 1502 1509 1506 1505 1504 1506 1508 1508 1506 1506 1504 1503 1501 1500 1499 1497 1496 1494 1493 1494 1494 1493 1494 1495 1494
1490 1491 1492 1493 1494 1494 1493 1494 1495 1496 1497 1499 1499 1498 1497 1495 1501 1504 1504 1501 1502 1500 1498 1497 1495 1493 1492 1492 1490 1489 1488 1487 1488 1487 1487 1487 1487 1487
1486 1486 1487 1488 1488 1488 1489 1490 1489 1494 1491 1496 1494 1496 1495 1495 1496 1497 1497 1496 1496 1494 1491 1490 1488 1486 1485 1485 1483 1482 1481 1480 1481 1480 1480 1480 1479 1479
1480 1481 1481 1481 1483 1484 1485 1486 1486 1487 1492 1492 1492 1493 1492 1490 1492 1493 1492 1491 1489 1486 1485 1483 1480 1479 1479 1479 1477 1475 1474 1473 1474 1473 1472 1471 1471 1470
1477 1478 1478 1480 1479 1482 1484 1482 1487 1483 1486 1487 1488 1487 1488 1487 1488 1488 1486 1484 1483 1481 1479 1476 1474 1473 1473 1472 1472 1470 1468 1467 1466 1466 1464 1463 1462 1461
1472 1474 1476 1478 1480 1480 1482 1483 1484 1483 1481 1483 1482 1483 1484 1484 1484 1482 1481 1479 1478 1476 1474 1472 1468 1468 1468 1467 1466 1464 1462 1460 1459 1458 1457 1455 1454 1454
1471 1472 1476 1478 1478 1479 1479 1481 1482 1482 1479 1478 1479 1481 1481 1481 1480 1478 1476 1474 1473 1470 1468 1467 1464 1463 1463 1462 1460 1458 1456 1455 1454 1452 1450 1449 1447 1445
1472 1473 1475 1478 1479 1476 1478 1480 1480 1479 1477 1476 1477 1478 1477 1476 1475 1474 1473 1471 1467 1465 1462 1460 1460 1458 1457 1455 1453 1451 1450 1448 1446 1445 1443 1441 1439 1438
1472 1473 1475 1478 1477 1478 1478 1478 1478 1477 1475 1474 1474 1474 1473 1472 1471 1470 1468 1466 1464 1462 1460 1455 1456 1452 1452 1449 1447 1444 1442 1440 1438 1436 1434 1432 1430 1429
1475 1475 1476 1477 1477 1477 1477 1476 1475 1473 1472 1470 1470 1469 1468 1468 1467 1466 1465 1463 1461 1460 1458 1452 1451 1448 1445 1442 1440 1438 1436 1433 1431 1429 1426 1424 1422 1421
1475 1476 1476 1475 1475 1474 1474 1472 1471 1469 1468 1467 1466 1465 1465 1465 1465 1464 1463 1461 1458 1456 1455 1450 1445 1441 1437 1434 1433 1431 1429 1427 1424 1420 1418 1415 1413 1411
1476 1475 1475 1474 1473 1472 1470 1469 1467 1466 1465 1464 1464 1463 1463 1463 1463 1462 1460 1458 1456 1452 1451 1448 1442 1438 1430 1424 1425 1424 1422 1420 1417 1413 1409 1406 1404 1401
1474 1474 1473 1472 1470 1468 1467 1466 1464 1463 1462 1461 1461 1461 1461 1460 1459 1458 1457 1456 1454 1451 1450 1446 1439 1437 1434 1424 1417 1416 1414 1411 1408 1404 1401 1399 1397 1395
1473 1471 1470 1468 1467 1465 1464 1463 1462 1461 1460 1460 1459 1459 1458 1457 1456 1455 1454 1453 1451 1448 1445 1442 1436 1433 1428 1422 1414 1410 1407 1403 1400 1397 1395 1392 1390 1387
1470 1469 1467 1465 1464 1462 1460 1460 1459 1459 1458 1458 1457 1456 1455 1453 1452 1451 1450 1448 1445 1442 1440 1436 1432 1428 1425 1419 1411 1404 1400 1395 1393 1391 1387 1384 1380 1378
1467 1466 1464 1462 1460 1459 1458 1457 1457 1456 1456 1455 1455 1454 1452 1450 1448 1446 1445 1443 1439 1436 1434 1430 1427 1424 1419 1414 1408 1399 1397 1393 1388 1384 1379 1374 1372 1369
1464 1462 1460 1458 1457 1456 1456 1455 1455 1455 1454 1453 1452 1451 1449 1447 1445 1443 1441 1438 1435 1430 1426 1424 1421 1418 1413 1409 1400 1395 1390 1385 1381 1376 1372 1367 1363 1360
1461 1459 1458 1456 1455 1454 1454 1454 1453 1452 1452 1450 1449 1447 1445 1443 1441 1439 1437 1434 1430 1426 1422 1418 1414 1409 1405 1400 1396 1387 1384 1379 1375 1371 1367 1360 1352 1352
1459 1457 1456 1454 1453 1452 1451 1451 1451 1450 1449 1448 1446 1444 1441 1439 1437 1434 1431 1428 1425 1421 1417 1413 1409 1406 1399 1392 1389 1388 1380 1374 1368 1363 1360 1355 1348 1342
1455 1454 1453 1452 1451 1450 1449 1449 1448 1447 1445 1444 1442 1440 1437 1434 1431 1429 1427 1424 1420 1416 1411 1408 1405 1401 1396 1389 1380 1374 1375 1367 1362 1355 1350 1346 1341 1335
1452 1450 1449 1448 1447 1447 1446 1446 1444 1443 1442 1440 1438 1436 1433 1430 1427 1424 1421 1419 1416 1412 1406 1401 1399 1395 1389 1382 1374 1367 1363 1362 1358 1351 1344 1339 1332 1326
1448 1447 1446 1445 1444 1443 1442 1442 1440 1439 1437 1435 1433 1431 1428 1425 1422 1419 1415 1412 1409 1405 1400 1394 1390 1385 1381 1377 1368 1359 1353 1350 1347 1342 1338 1334 1328 1320
1444 1442 1441 1440 1439 1438 1437 1437 1435 1434 1432 1430 1428 1425 1423 1419 1417 1413 1410 1406 1402 1397 1393 1386 1382 1379 1374 1369 1363 1354 1346 1341 1335 1328 1323 1323 1318 1312